Date String (YYYY-MM-DD hh:mm:ss) UTC,Instrument flags,Ambient pressure (hPa),Sample flow (lpm),Bypass flow (lpm),Sample temperature (°C),Ambient temperature (°C),ASC tube jacket temperature (°C),LED temperature (°C),Box temperature (°C),Sample RH (%),Mass concentration (μg/m³),Mass concentration (μg/m³)
DateTimeUTC,F1_M11,P_M11,Q1_M11,Q2_M11,T1_M11,T2_M11,T3_M11,T4_M11,T5_M11,U1_M11,X0_M11,X2_M11
2021-08-19 04:00:00,,0823.6,5.00,0.00,29.4,28.6,00.0,38.3,31.3,24.2,0024.58,0016.55
2021-08-19 04:01:00,,0823.5,5.01,0.00,29.4,28.4,00.0,38.3,31.3,24.0,0024.23,0016.51
2021-08-19 04:02:00,,0823.5,4.99,0.00,29.4,26.7,00.0,38.3,30.8,24.1,0025.01,0016.56
2021-08-19 04:03:00,,0823.4,5.00,0.00,29.2,25.4,00.0,38.3,30.4,24.3,0025.44,0016.60
2021-08-19 04:04:00,,0823.4,5.00,0.00,29.1,25.6,00.0,38.3,30.4,24.5,0024.87,0016.59
2021-08-19 04:05:00,,0823.4,5.00,0.00,29.0,26.0,00.0,38.2,30.5,24.7,0024.81,0016.58
2021-08-19 04:06:00,,0823.4,5.01,0.00,29.0,26.5,00.0,38.2,30.7,24.8,0025.01,0016.60
2021-08-19 04:07:00,,0823.5,5.00,0.00,29.0,26.9,00.0,38.2,30.8,24.8,0024.99,0016.62
2021-08-19 04:08:00,,0823.5,5.01,0.00,29.0,27.2,00.0,38.2,30.8,24.7,0025.44,0016.63
2021-08-19 04:09:00,,0823.5,4.98,0.00,29.1,27.5,00.0,38.2,30.9,24.7,0025.54,0016.66
2021-08-19 04:10:00,,0823.5,4.99,0.00,29.1,27.8,00.0,38.2,31.0,24.5,0025.68,0016.64
2021-08-19 04:11:00,,0823.5,5.01,0.00,29.2,28.0,00.0,38.2,31.1,24.4,0025.84,0016.63
2021-08-19 04:12:00,,0823.5,5.01,0.00,29.2,28.2,00.0,38.2,31.1,24.3,0025.66,0016.61
2021-08-19 04:13:00,,0823.6,4.99,0.00,29.3,28.3,00.0,38.2,31.2,24.2,0024.84,0016.61
2021-08-19 04:14:00,,0823.6,5.00,0.00,29.3,28.4,00.0,38.3,31.2,24.0,0024.26,0016.61
2021-08-19 04:15:00,,0823.6,5.01,0.00,29.4,28.5,00.0,38.3,31.3,24.0,0024.49,0016.62
2021-08-19 04:16:00,,0823.7,4.99,0.00,29.4,28.6,00.0,38.3,31.3,23.8,0024.68,0016.61
2021-08-19 04:17:00,,0823.7,5.00,0.00,29.4,27.6,00.0,38.3,31.1,23.8,0024.46,0016.60
2021-08-19 04:18:00,,0823.7,5.01,0.00,29.3,26.3,00.0,38.3,30.7,24.0,0024.45,0016.60
2021-08-19 04:19:00,,0823.7,5.00,0.00,29.2,26.4,00.0,38.3,30.7,24.1,0024.11,0016.59
2021-08-19 04:20:00,,0823.7,4.99,0.00,29.2,26.7,00.0,38.3,30.8,24.1,0023.68,0016.57
2021-08-19 04:21:00,,0823.7,5.00,0.00,29.2,27.1,00.0,38.3,30.9,24.2,0023.46,0016.56
2021-08-19 04:22:00,,0823.7,5.00,0.00,29.2,27.4,00.0,38.3,31.0,24.1,0023.39,0016.55
2021-08-19 04:23:00,,0823.7,5.00,0.00,29.2,27.7,00.0,38.3,31.0,24.0,0023.85,0016.55
2021-08-19 04:24:00,,0823.7,4.99,0.00,29.3,27.9,00.0,38.3,31.1,23.8,0024.02,0016.50
2021-08-19 04:25:00,,0823.7,5.00,0.00,29.3,28.1,00.0,38.3,31.2,23.8,0024.42,0016.44
2021-08-19 04:26:00,,0823.7,5.00,0.00,29.4,28.3,00.0,38.3,31.2,23.7,0024.16,0016.40
2021-08-19 04:27:00,,0823.7,4.99,0.00,29.4,28.5,00.0,38.3,31.3,23.6,0024.42,0016.40
2021-08-19 04:28:00,,0823.8,5.00,0.00,29.4,28.6,00.0,38.4,31.4,23.5,0024.51,0016.36
2021-08-19 04:29:00,,0823.7,5.01,0.00,29.5,28.1,00.0,38.4,31.2,23.4,0024.61,0016.33
2021-08-19 04:30:00,,0823.7,5.00,0.00,29.4,26.1,00.0,38.4,30.7,23.6,0024.64,0016.29
2021-08-19 04:31:00,,0823.7,4.99,0.00,29.2,25.3,00.0,38.3,30.5,23.8,0024.67,0016.26
2021-08-19 04:32:00,,0823.7,5.00,0.00,29.1,25.6,00.0,38.3,30.6,23.9,0024.33,0016.22
2021-08-19 04:33:00,,0823.7,5.01,0.00,29.1,26.1,00.0,38.3,30.6,23.9,0024.41,0016.20
2021-08-19 04:34:00,,0823.7,4.99,0.00,29.0,26.6,00.0,38.2,30.7,23.9,0023.91,0016.18
2021-08-19 04:35:00,,0823.7,5.00,0.00,29.1,27.0,00.0,38.2,30.8,23.9,0023.76,0016.17
2021-08-19 04:36:00,,0823.7,5.00,0.00,29.1,27.3,00.0,38.2,30.9,23.9,0023.38,0016.14
2021-08-19 04:37:00,,0823.7,5.00,0.00,29.1,27.6,00.0,38.2,31.0,24.3,0023.34,0016.10
2021-08-19 04:38:00,,0823.7,5.01,0.00,29.2,27.8,00.0,38.2,31.0,24.2,0023.32,0016.05
2021-08-19 04:39:00,,0823.7,5.00,0.00,29.2,28.0,00.0,38.2,31.1,24.0,0023.43,0016.09
2021-08-19 04:40:00,,0823.7,5.00,0.00,29.3,28.2,00.0,38.3,31.1,23.8,0023.51,0016.07
2021-08-19 04:41:00,,0823.7,5.00,0.00,29.3,28.3,00.0,38.3,31.2,23.8,0023.76,0016.09
2021-08-19 04:42:00,,0823.7,5.00,0.00,29.4,28.5,00.0,38.3,31.3,23.7,0023.86,0016.11
2021-08-19 04:43:00,,0823.7,5.00,0.00,29.4,28.6,00.0,38.3,31.3,23.6,0024.47,0016.15
2021-08-19 04:44:00,,0823.7,5.02,0.00,29.5,28.7,00.0,38.4,31.4,23.5,0024.42,0016.15
2021-08-19 04:45:00,,0823.7,4.99,0.00,29.5,28.2,00.0,38.4,31.2,23.3,0024.15,0016.15
2021-08-19 04:46:00,,0823.7,5.01,0.00,29.4,26.5,00.0,38.4,30.8,23.4,0024.34,0016.15
2021-08-19 04:47:00,,0823.7,4.99,0.00,29.3,26.3,00.0,38.4,30.7,23.6,0024.11,0016.18
2021-08-19 04:48:00,,0823.7,5.01,0.00,29.2,26.6,00.0,38.3,30.8,23.6,0024.41,0016.24
2021-08-19 04:49:00,,0823.7,4.99,0.00,29.2,27.0,00.0,38.3,30.9,23.7,0024.45,0016.28
2021-08-19 04:50:00,,0823.7,5.01,0.00,29.2,27.4,00.0,38.3,31.0,23.6,0024.35,0016.24
2021-08-19 04:51:00,,0823.7,4.99,0.00,29.2,27.6,00.0,38.3,31.0,23.6,0024.36,0016.26
2021-08-19 04:52:00,,0823.7,5.01,0.00,29.3,27.9,00.0,38.3,31.1,23.5,0024.18,0016.24
2021-08-19 04:53:00,,0823.7,4.99,0.00,29.3,28.1,00.0,38.3,31.2,23.6,0024.03,0016.19
2021-08-19 04:54:00,,0823.7,5.00,0.00,29.4,28.3,00.0,38.4,31.2,23.5,0023.36,0016.14
2021-08-19 04:55:00,,0823.7,5.01,0.00,29.4,28.4,00.0,38.4,31.3,23.3,0023.41,0016.12
2021-08-19 04:56:00,,0823.7,5.00,0.00,29.5,28.5,00.0,38.4,31.4,23.3,0023.52,0016.09
2021-08-19 04:57:00,,0823.8,5.00,0.00,29.5,28.6,00.0,38.4,31.4,23.3,0023.49,0016.14
2021-08-19 04:58:00,,0823.7,5.01,0.00,29.5,27.8,00.0,38.4,31.2,23.2,0023.58,0016.14
2021-08-19 04:59:00,,0823.8,5.00,0.00,29.3,25.9,00.0,38.4,30.6,23.4,0023.63,0016.11
